Theta_e
323 325 324 326 328 324 327 329 326 327 332 331 330 330 330 330 331 333 331 332 333 334 334 333 333 334 335 335 335 335 333 330 330 330 329 329 327 324 322 321 318 316 313 312 311 309 308 308 307
323 323 323 323 325 329 325 320 321 323 330 329 328 328 329 330 329 330 331 333 334 334 334 332 332 332 335 334 333 332 329 331 331 330 329 328 327 324 322 318 316 315 313 312 310 309 308 308 307
321 322 321 316 318 325 324 315 315 324 327 324 326 326 326 327 328 328 330 332 334 334 333 332 331 332 332 331 330 330 330 330 329 329 328 327 324 321 320 317 314 311 309 308 308 308 308 308 307
320 319 316 313 313 311 312 310 310 316 321 325 324 324 325 327 327 328 329 330 332 332 332 331 331 331 329 329 328 328 327 327 327 327 326 325 323 319 318 317 314 312 308 307 308 308 309 309 308
318 316 313 313 312 310 308 307 312 314 318 321 324 323 325 326 327 329 330 330 330 331 330 329 328 328 327 326 325 324 324 324 323 322 321 321 319 317 315 312 309 307 306 306 306 307 307 308 309
316 314 315 314 311 308 307 308 312 312 315 316 323 322 323 326 328 328 328 328 327 326 327 326 325 325 324 323 322 321 321 320 319 319 319 318 316 316 314 311 308 306 305 305 305 305 306 306 306
311 310 311 309 310 309 306 308 309 312 314 317 322 321 322 323 325 324 324 324 325 324 323 324 323 321 321 321 321 320 320 319 318 317 316 315 314 313 312 310 309 307 306 306 305 305 305 305 305
311 307 307 307 309 308 305 307 308 312 316 319 321 321 320 322 322 323 324 322 321 320 320 319 319 319 318 318 318 318 318 317 314 313 313 313 312 311 310 310 309 308 307 306 305 304 304 305 305
310 307 307 307 307 306 305 306 313 316 316 318 319 320 320 320 321 320 320 320 319 318 318 317 316 316 315 315 315 314 314 313 312 311 311 310 310 310 309 309 308 307 306 305 304 304 304 304 304
307 306 306 304 304 305 305 305 305 308 310 316 317 317 319 318 318 317 316 316 315 315 315 314 314 313 312 312 312 311 310 309 309 309 310 310 309 309 308 307 307 306 306 305 304 304 303 303 303
305 306 304 305 307 305 305 304 305 305 307 310 313 316 316 315 314 314 313 312 313 313 313 313 313 312 311 310 310 309 307 307 307 307 308 308 309 309 309 308 308 307 306 305 304 303 303 302 302
305 305 305 306 306 305 305 304 302 305 309 316 317 315 314 313 313 312 311 311 311 312 311 312 311 311 308 303 302 302 302 303 304 306 306 306 305 305 306 307 308 308 307 307 306 305 304 303 302
305 305 305 305 305 304 304 301 302 301 312 314 315 313 313 312 312 311 310 309 309 309 307 306 304 301 301 301 301 301 302 303 304 304 303 302 302 302 302 302 304 307 307 307 307 307 307 306 306
306 305 304 304 304 304 303 302 302 302 312 314 314 312 311 310 309 308 307 306 303 301 300 300 299 299 299 299 299 299 300 300 300 300 300 300 301 302 302 302 303 303 304 305 306 307 306 306 306
306 306 305 302 302 303 304 304 300 302 310 311 311 310 309 307 304 304 303 300 299 299 298 298 298 297 297 296 296 296 296 295 295 294 294 294 294 294 295 296 298 300 302 303 303 304 304 304 304
305 304 307 304 301 303 305 306 299 304 310 309 308 306 305 302 301 300 298 297 297 296 296 295 294 294 294 294 293 293 293 293 293 293 293 293 293 293 293 293 293 293 293 294 297 301 303 303 303
303 307 308 307 300 298 301 305 299 304 309 307 304 304 302 301 299 298 297 296 295 294 293 293 293 293 293 293 293 293 293 293 294 293 293 293 293 293 292 292 292 292 292 292 292 292 294 298 301
308 308 306 306 301 297 298 297 297 301 306 304 303 301 300 300 299 296 294 293 292 292 292 292 292 292 293 293 293 294 294 293 293 293 293 292 292 292 291 291 291 290 290 290 290 290 290 290 291
304 306 303 299 298 298 298 296 296 297 300 301 300 300 299 299 297 294 292 291 291 291 291 292 292 292 292 293 294 294 294 293 292 292 292 291 290 289 289 288 288 287 287 287 287 287 287 287 288
299 299 299 297 297 297 296 298 297 295 297 300 300 299 298 296 294 292 291 291 291 291 292 292 291 291 292 292 291 291 291 291 291 291 290 289 288 287 286 286 285 285 285 284 284 284 284 285 289
300 300 299 298 297 296 294 299 297 295 295 296 297 298 297 295 293 291 291 291 291 291 291 291 290 290 290 290 290 289 289 289 288 288 287 287 286 285 285 284 283 283 283 283 283 283 283 283 284
301 299 299 298 298 300 294 303 298 295 293 293 294 295 295 294 293 291 291 291 290 290 290 290 290 289 289 288 288 287 286 285 285 285 285 285 284 284 283 283 283 282 282 282 282 282 283 282 282
299 298 298 297 295 297 296 296 298 294 295 293 293 295 295 294 293 292 291 290 290 290 290 289 289 288 287 287 286 285 285 284 284 284 283 283 282 282 282 282 281 281 281 281 281 282 282 282 282
296 297 296 294 293 299 289 293 301 299 297 295 293 294 295 294 293 292 291 290 289 289 289 289 288 287 286 286 285 284 284 283 283 282 282 281 281 281 281 281 281 281 281 281 281 281 282 282 282
296 296 299 302 300 304 281 292 301 298 294 294 293 294 295 294 293 292 290 289 289 289 288 288 287 286 286 285 284 284 283 282 281 281 280 280 280 280 280 280 280 280 280 280 280 281 282 282 282
297 294 298 297 300 300 282 296 302 294 293 293 294 294 294 294 294 292 290 289 289 288 287 288 286 285 284 284 283 282 282 281 280 280 280 280 280 280 280 280 279 280 280 280 280 280 281 282 281
297 294 292 287 277 289 294 296 297 293 291 292 293 294 295 295 294 291 290 289 289 289 288 288 284 283 283 282 282 281 280 279 279 279 279 279 279 279 279 279 279 279 279 279 279 279 280 281 281
294 293 296 293 296 298 296 289 301 296 292 289 291 293 295 295 293 292 290 290 288 288 287 284 283 283 282 281 280 279 279 279 278 278 278 278 278 278 278 278 277 277 278 278 279 279 279 280 281
292 292 291 292 294 296 295 299 294 292 287 286 292 296 296 295 292 291 289 288 287 286 284 283 283 282 281 280 279 279 278 278 277 277 277 277 277 277 277 277 277 277 277 277 277 279 279 280 280
295 293 294 296 293 290 292 298 291 284 286 289 295 295 294 294 291 289 288 287 285 283 283 282 282 280 279 279 278 277 277 276 276 276 276 276 276 276 276 275 276 276 276 276 276 277 278 279 280
Wind_Speed
3 5 3 2 4 4 2 2 1 2 3 5 6 6 10 9 5 3 4 6 5 9 10 12 12 10 9 7 4 4 4 4 4 8 9 10 10 12 11 11 11 11 10 11 11 10 10 9 9
1 3 3 4 4 3 1 4 4 2 7 8 7 4 8 5 8 3 4 6 6 9 10 14 13 12 9 8 7 6 3 7 9 8 8 10 11 11 12 13 13 13 12 12 11 11 11 11 10
2 4 4 4 3 3 3 1 2 3 3 1 5 9 5 4 7 4 9 5 6 5 7 9 11 11 8 9 9 9 7 8 9 9 10 10 11 13 13 13 13 13 13 13 12 12 12 12 12
2 3 7 5 4 2 2 2 3 3 4 8 7 8 6 9 4 9 10 9 5 6 9 10 7 8 8 8 10 10 8 8 9 9 10 11 12 11 12 13 13 14 14 14 14 13 14 14 14
4 4 5 4 2 2 2 2 5 4 4 9 3 4 5 7 7 6 10 8 11 10 9 9 11 10 9 8 9 8 8 8 8 10 11 12 13 14 15 15 14 13 13 13 14 14 14 14 15
4 4 5 3 2 3 3 12 4 6 9 6 8 6 4 5 6 11 8 8 11 10 11 8 9 9 10 9 10 11 11 11 11 12 14 15 15 15 16 16 16 15 15 15 16 16 17 17 16
7 4 3 3 2 4 4 6 6 4 7 9 3 4 4 3 6 7 7 7 6 6 7 9 11 13 13 13 13 13 14 14 15 15 16 16 16 16 16 17 17 18 18 18 18 18 18 19 18
6 6 3 3 2 2 7 3 2 8 5 4 5 3 3 4 3 2 1 2 5 9 12 15 17 20 21 18 17 17 16 15 15 14 14 15 15 16 16 17 18 19 19 19 19 19 19 19 19
4 5 3 2 2 1 6 2 7 8 12 10 6 6 5 4 2 1 3 6 9 11 13 16 15 16 17 15 14 14 13 14 14 14 14 14 15 15 15 16 17 18 19 20 21 21 21 21 21
7 4 2 1 1 1 4 4 3 4 6 7 8 6 6 3 0 3 4 5 7 8 9 11 13 15 16 14 13 14 13 13 13 13 13 14 15 15 16 16 17 18 19 20 20 21 21 22 22
6 4 5 2 2 1 3 8 3 6 4 6 1 5 4 4 3 2 4 4 6 7 9 11 14 17 17 18 17 16 15 14 14 15 16 16 16 17 17 18 18 18 19 20 20 21 22 22 23
7 8 3 2 7 2 2 5 8 11 3 5 6 6 5 3 2 1 2 4 6 7 11 13 15 16 18 17 17 17 16 16 16 17 19 20 21 21 21 21 22 22 23 23 23 24 24 24 24
7 4 7 7 8 10 7 8 8 10 4 6 9 7 5 4 3 2 3 5 7 9 10 12 13 14 14 14 13 13 13 13 15 17 19 20 21 22 23 23 23 23 24 25 26 26 27 27 28
8 13 8 8 9 11 3 3 3 2 7 9 11 9 8 6 5 3 3 5 7 8 9 11 12 12 13 13 13 13 13 14 15 17 18 19 20 22 23 23 23 23 25 26 28 29 31 31 31
6 5 4 16 12 3 1 2 2 6 15 13 12 11 9 7 4 2 2 4 6 8 9 9 9 10 11 12 13 14 15 15 15 16 17 18 20 21 23 24 25 26 27 28 29 30 32 34 35
5 5 3 3 10 1 1 7 6 2 17 16 13 11 9 5 2 0 2 4 6 6 7 7 7 8 8 10 11 12 13 14 16 17 19 21 23 25 27 28 28 29 29 30 31 32 34 35 36
7 2 2 6 5 5 2 6 4 3 15 14 12 11 8 5 2 1 3 4 5 5 5 6 7 8 9 10 12 13 15 17 19 21 23 25 27 29 32 33 34 34 35 35 35 35 35 38 40
2 0 3 5 5 5 5 10 4 5 11 12 12 12 11 9 6 4 3 3 4 5 6 8 10 12 13 15 16 17 19 21 24 26 28 29 31 32 34 34 35 36 37 37 37 38 38 39 40
1 1 3 4 1 4 5 9 9 11 12 15 15 14 14 12 8 6 4 4 4 6 7 10 13 16 19 23 26 28 30 31 31 31 33 35 37 38 39 39 39 37 36 36 36 38 40 41 38
3 1 4 6 2 3 6 19 13 16 12 21 22 20 16 13 10 7 6 6 7 8 10 13 15 19 22 25 27 29 30 30 32 34 35 38 41 42 41 41 41 40 39 38 36 35 38 38 27
1 0 2 5 8 1 7 9 3 3 7 14 16 17 15 13 11 10 9 10 10 10 11 14 17 21 24 27 29 30 33 35 36 37 40 39 40 40 39 38 38 37 36 36 35 34 33 40 35
2 2 2 4 4 3 5 5 6 1 5 9 18 20 17 15 14 12 12 12 11 12 13 15 19 23 26 28 31 33 35 39 40 42 43 44 43 41 39 37 37 37 38 39 38 34 34 34 40
1 2 1 2 3 2 4 2 7 3 5 8 19 24 22 19 17 16 15 14 14 13 15 18 21 24 27 29 31 34 37 39 43 45 47 46 44 40 36 33 33 33 33 34 35 37 38 35 35
2 1 4 3 3 3 3 3 5 4 4 3 4 24 24 21 19 18 17 16 14 15 17 21 24 26 29 31 33 36 39 42 45 46 45 44 42 40 36 34 33 33 34 35 36 36 37 37 36
6 5 4 6 5 5 1 1 11 3 5 3 6 10 23 22 21 21 19 16 16 18 21 24 27 30 32 35 37 39 41 42 43 42 41 41 41 40 37 35 35 35 35 36 36 36 36 34 34
3 4 4 4 4 5 2 6 5 3 3 6 8 10 14 22 23 22 18 18 19 21 24 27 30 32 34 37 39 40 41 40 39 38 37 38 38 38 37 36 36 35 35 35 35 35 35 33 31
1 4 3 6 1 3 3 7 10 2 6 9 9 7 12 19 21 20 18 18 20 23 25 26 30 34 37 39 40 41 39 37 36 36 36 38 37 38 37 36 36 36 35 35 34 36 35 33 29
4 3 4 3 5 7 5 5 6 6 5 4 9 14 13 17 19 18 17 18 20 20 21 25 30 35 38 39 39 38 36 36 36 38 38 38 38 38 38 37 36 36 36 35 34 34 35 32 31
2 2 5 3 3 4 5 6 7 7 4 4 7 8 14 17 17 16 16 18 19 18 22 28 33 37 39 38 37 38 39 40 40 40 40 40 40 40 38 38 38 38 37 37 36 35 34 30 30
1 4 4 4 6 3 1 13 1 4 4 8 8 12 13 16 13 13 15 18 17 21 27 32 35 37 37 37 38 39 40 39 40 40 39 37 36 38 35 35 38 40 40 39 38 36 34 31 30
Wind_Direction
333 348 44 83 67 65 48 25 263 47 53 47 77 80 100 51 46 87 8 348 357 33 32 34 37 46 48 63 76 86 158 59 358 336 346 346 349 346 346 345 345 345 341 337 335 335 333 333 329
347 16 54 83 83 80 13 324 48 21 131 118 74 56 56 72 50 50 34 27 47 57 54 55 52 42 61 74 78 53 69 332 308 336 337 341 338 341 340 341 341 342 338 335 332 330 329 327 320
75 50 59 79 88 103 135 328 352 91 123 170 106 66 61 15 16 25 13 34 74 55 58 64 51 39 34 33 37 26 21 357 345 347 343 339 340 334 335 335 336 335 332 330 330 331 328 327 322
107 65 67 73 80 73 73 329 292 181 79 55 91 67 76 40 29 14 30 71 20 43 59 28 43 45 20 25 25 23 14 7 352 345 342 339 332 330 331 329 329 324 322 322 322 322 322 321 319
76 67 61 82 52 86 54 342 21 58 82 38 87 98 74 32 33 41 47 50 60 45 48 42 39 47 28 8 10 10 6 353 343 334 333 327 326 326 325 325 323 320 317 315 314 313 312 311 311
67 70 64 93 68 348 38 16 39 53 47 35 69 87 77 33 57 55 51 40 33 13 19 1 355 360 360 356 349 351 344 337 331 331 325 320 317 315 315 316 317 317 316 315 314 312 310 309 308
98 72 112 108 111 37 341 18 47 58 43 30 56 79 99 67 50 44 25 8 25 10 1 344 345 349 346 343 340 339 338 334 331 327 320 317 316 315 315 314 314 314 313 312 311 310 309 309 308
86 91 83 32 93 48 345 65 77 48 59 57 47 76 114 114 89 100 44 13 357 1 353 348 347 338 336 337 337 335 329 325 325 323 323 321 320 318 315 313 311 309 309 309 309 307 306 306 305
73 65 71 49 95 237 3 85 58 66 82 65 70 98 118 122 186 224 304 327 325 317 321 328 326 317 319 327 335 330 331 331 327 323 321 319 318 315 312 311 311 310 308 308 308 307 306 304 302
57 77 93 254 207 91 35 81 73 86 79 72 85 85 107 157 81 9 346 334 332 334 327 333 331 328 332 335 331 327 325 324 323 318 313 311 311 311 310 309 307 305 303 301 300 300 300 299 299
40 110 159 42 19 140 107 63 69 134 43 28 63 117 112 80 74 32 345 335 330 327 317 311 311 313 321 323 321 319 317 315 316 317 315 314 311 307 304 302 299 299 298 298 297 295 295 295 294
95 61 135 66 31 152 87 96 70 64 22 90 130 138 117 105 103 180 319 310 304 303 305 310 313 317 324 330 331 330 325 321 318 318 319 318 317 315 312 310 308 306 303 301 299 298 297 296 296
79 125 70 75 70 83 98 83 126 48 108 150 137 143 155 174 186 234 287 307 311 312 321 323 327 333 336 338 338 338 336 333 331 327 325 324 322 320 319 316 312 310 307 305 303 301 299 297 295
115 100 89 56 47 55 97 85 174 12 158 163 176 166 185 196 205 201 269 297 314 330 332 339 339 343 346 347 351 352 349 346 341 337 337 334 330 326 323 321 318 313 306 304 303 302 301 299 297
117 76 42 23 354 52 71 230 201 312 174 179 183 180 180 179 177 220 281 323 335 333 341 339 345 351 351 356 360 359 360 357 353 351 347 342 336 332 329 326 321 314 308 304 301 299 296 295 293
50 52 22 322 6 276 126 255 205 204 175 191 195 175 174 174 181 347 354 348 351 348 343 352 355 356 0 2 2 359 355 351 347 343 338 334 331 328 325 322 319 316 312 309 304 301 296 294 292
15 144 317 308 48 317 59 267 197 232 199 195 187 186 184 190 206 270 315 331 331 338 340 333 337 341 348 350 347 344 340 336 333 332 328 326 325 323 321 319 316 312 308 305 303 300 298 295 293
235 26 289 270 341 348 291 268 242 250 205 203 199 196 195 209 223 243 279 306 323 326 330 335 337 338 337 335 332 329 332 331 331 329 327 325 323 322 319 318 316 314 311 309 306 302 297 295 295
130 181 270 259 39 325 254 273 256 219 206 209 205 204 209 216 222 233 247 265 286 306 319 328 335 338 337 336 335 333 333 332 329 328 328 327 326 326 325 324 321 318 316 315 314 311 307 303 303
49 3 290 280 16 352 352 292 264 189 210 212 210 209 213 216 222 237 251 264 280 298 313 321 331 336 337 337 335 332 328 325 325 325 325 327 327 327 326 324 323 322 320 319 319 317 313 307 311
39 182 319 261 331 68 325 285 280 220 210 217 220 225 224 227 232 239 249 260 274 294 312 327 333 334 334 332 329 328 326 327 328 328 328 328 326 324 323 322 321 320 320 319 320 320 319 313 308
295 78 317 298 19 287 16 282 306 301 257 235 228 225 225 227 233 239 250 265 284 299 313 322 326 328 329 330 330 331 332 332 331 329 328 327 325 324 323 320 319 318 319 320 320 319 317 315 309
302 338 279 79 104 13 350 67 274 14 285 246 227 227 226 227 232 240 250 260 275 292 305 316 321 325 327 329 330 331 330 329 328 329 327 325 323 323 322 319 317 317 317 316 315 316 315 314 309
8 65 45 67 104 17 243 104 277 239 213 280 267 234 228 229 236 244 252 261 278 292 304 311 317 323 324 326 330 330 329 328 326 325 323 323 322 323 322 319 317 317 318 318 315 313 312 309 308
38 42 341 354 5 234 45 5 251 278 232 235 278 265 227 230 238 246 252 265 278 291 304 313 318 321 325 328 328 328 327 325 323 323 323 322 322 322 322 320 319 319 318 316 316 314 312 308 306
45 119 139 279 287 282 16 240 255 192 265 265 276 277 232 230 242 249 257 269 282 294 304 310 315 321 325 326 326 325 325 322 322 323 322 321 321 322 322 320 318 317 317 317 316 314 312 309 301
320 41 142 95 95 25 267 289 288 266 278 257 253 246 232 237 246 255 266 278 287 293 297 307 318 322 324 325 325 325 325 325 322 322 322 322 322 321 321 320 319 317 316 316 317 314 314 312 303
101 160 32 13 336 311 277 271 246 297 283 271 252 253 257 257 254 259 268 280 292 299 303 311 317 321 325 325 324 324 324 324 323 322 322 320 318 317 316 317 318 318 317 315 314 312 311 308 308
25 14 44 118 143 213 294 251 211 226 227 226 270 278 294 285 266 265 278 297 303 303 310 317 321 324 325 325 325 324 324 325 323 320 318 317 315 315 315 314 315 317 319 318 314 310 311 307 300
315 203 157 126 261 232 194 279 73 223 249 278 290 300 311 299 264 273 296 306 307 314 320 323 324 324 326 326 326 326 327 327 325 323 321 318 313 313 311 310 312 313 313 316 317 312 310 309 307